Погода в Новом Мире

Россия / Курганская область     55°20′05″N   64°30′16″E
темп.,
°C
ветер,
м/с
пор.,
м/с
влажн.,
%
обл.,
%
осадки,
мм/ч
давл.,
гПа
погр.,
м
12 августа, пт
пт1223:00+17зсз379591 0.4 1016181
02:00+17сз4995100 0.6 1016354
05:00+14сз51190100 1.3 1017338
08:00+15сз59770 0.0 1018496
11:00+20сз710500 0.0 10171386
14:00+22сз81143100 0.0 10162240
17:00+21сз594792 0.0 10151402
20:00+20з225198 0.0 101523
13 августа, сб
сб1323:00+19зсз410545 0.0 1015249
02:00+15з512695 0.0 1014241
05:00+14з511775 0.0 1014230
08:00+18з7116590 0.0 1013450
11:00+20зсз8116175 0.0 1013752
14:00+24зсз81146100 0.1 10122219
17:00+24з7104699 0.1 10122212
20:00+20зсз345499 0.0 101268
14 августа, вс
вс1423:00+19с394911 0.0 1014288
02:00+13ссз356715 0.0 101586
05:00+12ссз47730 0.0 1017112
08:00+15ссз46620 0.0 1018381
11:00+19ссз67420 0.0 10181717
14:00+21сз67350 0.0 10182081
17:00+21ссз67352 0.0 10182118
20:00+16ссз3349100 0.0 101927
15 августа, пн
пн1523:00+13с11545 0.0 101911
02:00+14зюз224993 0.0 101925
05:00+13зюз355392 0.0 1020110
08:00+16з3550100 0.0 1020236
11:00+20сз344420 0.0 10191199
14:00+22ссз553842 0.0 10192494
17:00+22с553659 0.0 10191995
20:00+17ссв3447100 0.0 1021105
16 августа, вт
вт1623:00+13ссв355775 0.0 102282
02:00+12св336184 0.0 102252
05:00+9с34695 0.0 102363
08:00+13с46565 0.0 1024329
11:00+18с453816 0.0 10241877
14:00+20ссз453354 0.0 10232409
17:00+20сз573699 0.0 10222346
20:00+16з33539 0.0 102131